Kansas Department of Transportation
RWIS(Road and Runway Information System) Map and Weather Data





Station
Surface
Air
Wind
Site IDSensor TypeLocationTemperature (°F)Temperature (°F)Humidity (%)Speed (mi/h)Gusts (mi/h)DirectionTime
123014AtmosphericBull Creek 72381014SEMar 23 2017 8:45PM
123014DeckBull Creek72     Mar 23 2017 8:45PM
123014DepartureBull Creek72     Mar 23 2017 8:45PM
123015AtmosphericLeavenworth 7339714SSWMar 23 2017 8:45PM
123015DeckLeavenworth72     Mar 23 2017 8:45PM
123015DepartureLeavenworth70     Mar 23 2017 8:45PM
123020AtmosphericMayetta 70441418SSEMar 23 2017 8:45PM
123020RoadwayMayetta68     Mar 23 2017 8:45PM
123020DeckMayetta68     Mar 23 2017 8:45PM
505000AtmosphericKTA 1 7531813SSEMar 23 2017 8:30PM
505000ApproachKTA 175     Mar 23 2017 8:30PM
505000DeckKTA 175     Mar 23 2017 8:30PM
505001AtmosphericKTA 2 75391019SMar 23 2017 8:30PM
505001ApproachKTA 277     Mar 23 2017 8:30PM
505001DeckKTA 275     Mar 23 2017 8:30PM
505002AtmosphericKTA 3 7041715SMar 23 2017 8:30PM
505002ApproachKTA 372     Mar 23 2017 8:30PM
505002DeckKTA 375     Mar 23 2017 8:30PM
505003AtmosphericKTA 4 73331418SEMar 23 2017 8:30PM
505003ApproachKTA 472     Mar 23 2017 8:30PM
505003DeckKTA 472     Mar 23 2017 8:30PM
505004AtmosphericKTA 5 72991316SSEMar 23 2017 8:30PM
505004RoadwayKTA 570     Mar 23 2017 8:30PM
505004RoadwayKTA 570     Mar 23 2017 8:30PM
505005AtmosphericKTA 6 704749ESEMar 23 2017 8:30PM
505005Approach KTA 670     Mar 23 2017 8:30PM
505005DeckKTA 672     Mar 23 2017 8:30PM
505006AtmosphericKTA 7 7250712SSEMar 23 2017 8:30PM
505006ApproachKTA 770     Mar 23 2017 8:30PM
505006DeckKTA 773     Mar 23 2017 8:30PM
505007AtmosphericKTA 8 7049913SMar 23 2017 8:30PM
505007ApproachKTA 872     Mar 23 2017 8:30PM
505007DeckKTA 873     Mar 23 2017 8:30PM
505008AtmosphericKTA 9 7310612SMar 23 2017 8:30PM
505008ApproachKTA 973     Mar 23 2017 8:30PM
505008DeckKTA 975     Mar 23 2017 8:30PM
505009AtmosphericKTA 10 7525410SMar 23 2017 8:30PM
505009ApproachKTA 1072     Mar 23 2017 8:30PM
505009DeckKTA 1075     Mar 23 2017 8:30PM
505010AtmosphericWebb 75391114ESEMar 23 2017 8:45PM
505010DeckWebb75     Mar 23 2017 8:45PM
505010NullWebb73     Mar 23 2017 8:45PM
505014AtmosphericI-135 77361019SSEMar 23 2017 8:45PM
505014ApproachI-13575     Mar 23 2017 8:45PM
505014DeckI-13575     Mar 23 2017 8:45PM
540000AtmosphericBlue Rapids 7249612SSEMar 23 2017 8:45PM
540000DeckBlue Rapids72     Mar 23 2017 8:45PM
540000DepartureBlue Rapids72     Mar 23 2017 8:45PM
540001AtmosphericSabetha 6856814NMar 23 2017 8:45PM
540001ApproachSabetha70     Mar 23 2017 8:45PM
540001DeckSabetha72     Mar 23 2017 8:45PM
540002AtmosphericWestgate 7240713ESEMar 23 2017 8:45PM
540002DeckWestgate73     Mar 23 2017 8:45PM
540002DepartureWestgate72     Mar 23 2017 8:45PM
540003AtmosphericEmporia 7248415SSWMar 23 2017 8:45PM
540003ApproachEmporiaUnavailable     Mar 23 2017 8:45PM
540003DeckEmporiaUnavailable     Mar 23 2017 8:45PM
540005AtmosphericLawrence 7241410ESEMar 23 2017 8:45PM
540005ApproachLawrence73     Mar 23 2017 8:45PM
540005DeckLawrence73     Mar 23 2017 8:45PM
540006AtmosphericTroy 7560811SSEMar 23 2017 7:25PM
540006DeckTroy79     Mar 23 2017 7:25PM
540006DepartureTroy75     Mar 23 2017 7:25PM
540007AtmosphericManhattan 724823ESEMar 23 2017 8:45PM
540007DepartureManhattan75     Mar 23 2017 8:45PM
540007DeckManhattan73     Mar 23 2017 8:45PM
541000AtmosphericElkhart 6170912SSEMar 23 2017 8:45PM
541000ApproachElkhartUnavailable     Mar 23 2017 8:45PM
541000DeckElkhartUnavailable     Mar 23 2017 8:45PM
541001AtmosphericSyracuse 63671221SMar 23 2017 8:45PM
541001Out of Service for WinterSyracuse66     Mar 23 2017 8:45PM
541001DeckSyracuse66     Mar 23 2017 8:45PM
541002AtmosphericLiberal 75401123SSEMar 23 2017 8:45PM
541002ApproachLiberalUnavailable     Mar 23 2017 8:45PM
541002DeckLiberalUnavailable     Mar 23 2017 8:45PM
541003AtmosphericFord 66321322SSEMar 23 2017 8:45PM
541003DeckFord75     Mar 23 2017 8:45PM
541003DepartureFord73     Mar 23 2017 8:45PM
541004AtmosphericScott 64111016SEMar 23 2017 8:45PM
541004DepartureScott61     Mar 23 2017 8:45PM
541005AtmosphericNess 75291217SSWMar 23 2017 8:45PM
541005DeckNess75     Mar 23 2017 8:45PM
541005DepartureNess73     Mar 23 2017 8:45PM
541007AtmosphericGarden City 73441020SSEMar 23 2017 8:45PM
541007ApproachGarden City73     Mar 23 2017 8:45PM
541007DeckGarden City75     Mar 23 2017 8:45PM
543000AtmosphericJunction City 7538610NEMar 23 2017 8:45PM
543000ApproachJunction City73     Mar 23 2017 8:45PM
543000DeckJunction City75     Mar 23 2017 8:45PM
543001AtmosphericEllsworth 75281923WMar 23 2017 8:45PM
543001RoadwayEllsworth72     Mar 23 2017 8:45PM
543002AtmosphericMcPherson 73411417SMar 23 2017 8:45PM
543002ApproachMcPherson70     Mar 23 2017 8:45PM
543003AtmosphericSalina 77261116NMar 23 2017 8:45PM
543003DepartureSalina72     Mar 23 2017 8:45PM
543003RoadwaySalinaUnavailable     Mar 23 2017 8:45PM
543004AtmosphericConcordia 7347811SEMar 23 2017 8:45PM
543004ApproachConcordiaUnavailable     Mar 23 2017 8:45PM
543004DeckConcordia72     Mar 23 2017 8:45PM
543005AtmosphericPeabody 68321218WSWMar 23 2017 8:45PM
543005ApproachPeabody72     Mar 23 2017 8:45PM
543005DeckPeabodyUnavailable     Mar 23 2017 8:45PM
560000AtmosphericEdson 70221318SMar 23 2017 8:45PM
560000RoadwayEdson73     Mar 23 2017 8:45PM
560000RoadwayEdson72     Mar 23 2017 8:45PM
560001AtmosphericOakley 6454715SEMar 23 2017 8:45PM
560001ApproachOakley70     Mar 23 2017 8:45PM
560001DeckOakley70     Mar 23 2017 8:45PM
560002AtmosphericAtwood 75331322SSEMar 23 2017 8:45PM
560002ApproachAtwood75     Mar 23 2017 8:45PM
560002DeckAtwood75     Mar 23 2017 8:45PM
560003AtmosphericJennings 68451421SMar 23 2017 8:45PM
560003ApproachJennings68     Mar 23 2017 8:45PM
560003DeckJennings70     Mar 23 2017 8:45PM
560004AtmosphericWakeeney 64341218WSWMar 23 2017 8:45PM
560004ApproachWakeeney70     Mar 23 2017 8:45PM
560004DeckWakeeney72     Mar 23 2017 8:45PM
560005AtmosphericWalker 73171016SMar 23 2017 8:45PM
560005ApproachWalker73     Mar 23 2017 8:45PM
560005DeckWalker77     Mar 23 2017 8:45PM
560006AtmosphericBow Creek(Stockton) 75301117SMar 23 2017 8:45PM
560006ApproachBow Creek(Stockton)73     Mar 23 2017 8:45PM
560006DeckBow Creek(Stockton)73     Mar 23 2017 8:45PM
560007AtmosphericLebanon 73471320SSEMar 23 2017 8:45PM
560007ApproachLebanon70     Mar 23 2017 8:45PM
560007DeckLebanon72     Mar 23 2017 8:45PM
560008AtmosphericWallace 6813618SMar 23 2017 8:45PM
560008ApproachWallace75     Mar 23 2017 8:45PM
560008DeckWallace73     Mar 23 2017 8:45PM
572000AtmosphericGreat Bend 75401723SMar 23 2017 8:45PM
572000ApproachGreat Bend73     Mar 23 2017 8:45PM
572000DeckGreat Bend75     Mar 23 2017 8:45PM
572001AtmosphericPratt 751229SMar 23 2017 8:45PM
572001ApproachPratt75     Mar 23 2017 8:45PM
572001DeckPratt75     Mar 23 2017 8:45PM
572002AtmosphericAnthony 7539712SSEMar 23 2017 8:45PM
572002ApproachAnthony75     Mar 23 2017 8:45PM
572002DeckAnthony73     Mar 23 2017 8:45PM
573000AtmosphericEureka 7251714SSEMar 23 2017 8:45PM
573000DeckEureka75     Mar 23 2017 8:45PM
573000DepartureEureka72     Mar 23 2017 8:45PM
573001AtmosphericGarnett 7046911SMar 23 2017 8:45PM
573001ApproachGarnett72     Mar 23 2017 8:45PM
573001DeckGarnett73     Mar 23 2017 8:45PM
573002AtmosphericCaney 7545711ENEMar 23 2017 8:45PM
573002RoadwayCaney75     Mar 23 2017 8:45PM
573003AtmosphericChetopa 7245714ESEMar 23 2017 8:45PM
573003DeckChetopa72     Mar 23 2017 8:45PM
573003DepartureChetopa75     Mar 23 2017 8:45PM
573004AtmosphericChanute 7246711SEMar 23 2017 8:45PM
573004ApproachChanute73     Mar 23 2017 8:45PM
573004DeckChanute73     Mar 23 2017 8:45PM